TimeCST,TemperatureF,Dew PointF,Humidity,Sea Level PressureIn,VisibilityMPH,Wind Direction,Wind SpeedMPH,Gust SpeedMPH,PrecipitationIn,Events,Conditions,WindDirDegrees,DateUTC
12:53 AM,61.0,57.9,90,29.90,10.0,South,5.8,-,N/A,,Partly Cloudy,190,2013-11-16 06:53:00
1:46 AM,57.2,57.2,100,29.91,10.0,South,4.6,-,N/A,,Mostly Cloudy,180,2013-11-16 07:46:00
1:53 AM,59.0,57.9,96,29.89,10.0,South,3.5,-,N/A,,Mostly Cloudy,190,2013-11-16 07:53:00
2:39 AM,62.6,60.8,94,29.89,10.0,South,4.6,-,N/A,,Overcast,190,2013-11-16 08:39:00
2:53 AM,62.1,60.1,93,29.87,10.0,South,5.8,-,N/A,,Overcast,180,2013-11-16 08:53:00
3:47 AM,62.6,60.8,94,29.89,2.5,South,6.9,-,N/A,,Overcast,180,2013-11-16 09:47:00
3:53 AM,63.0,62.1,97,29.87,1.0,South,4.6,-,N/A,,Overcast,180,2013-11-16 09:53:00
4:11 AM,62.6,62.6,100,29.88,1.0,South,5.8,-,N/A,,Mist,180,2013-11-16 10:11:00
4:53 AM,64.0,63.0,96,29.87,1.0,South,8.1,-,N/A,,Overcast,180,2013-11-16 10:53:00
5:08 AM,64.4,62.6,94,29.88,2.0,South,8.1,-,N/A,,Overcast,190,2013-11-16 11:08:00
5:19 AM,64.4,62.6,94,29.89,5.0,South,8.1,-,N/A,,Overcast,190,2013-11-16 11:19:00
5:53 AM,64.0,63.0,96,29.86,5.0,South,9.2,-,N/A,,Overcast,180,2013-11-16 11:53:00
6:53 AM,64.9,63.0,93,29.87,3.0,South,8.1,-,N/A,,Overcast,180,2013-11-16 12:53:00
6:56 AM,64.4,62.6,94,29.89,1.0,South,8.1,-,N/A,,Overcast,180,2013-11-16 12:56:00
7:27 AM,64.4,62.6,94,29.89,2.0,South,6.9,-,N/A,,Overcast,170,2013-11-16 13:27:00
7:53 AM,64.9,64.0,97,29.88,2.0,South,6.9,-,N/A,,Overcast,180,2013-11-16 13:53:00
8:04 AM,64.4,64.4,100,29.91,5.0,SSW,9.2,-,N/A,,Overcast,200,2013-11-16 14:04:00
8:53 AM,66.9,64.0,90,29.90,7.0,SSW,9.2,-,N/A,,Overcast,200,2013-11-16 14:53:00
9:53 AM,70.0,64.9,84,29.89,10.0,SSW,11.5,18.4,N/A,,Overcast,200,2013-11-16 15:53:00
10:44 AM,75.2,64.4,69,29.89,10.0,SSW,15.0,26.5,N/A,,Mostly Cloudy,200,2013-11-16 16:44:00
10:53 AM,77.0,64.9,66,29.86,10.0,South,19.6,28.8,N/A,,Mostly Cloudy,180,2013-11-16 16:53:00
11:30 AM,78.8,64.4,61,29.87,10.0,South,15.0,24.2,N/A,,Mostly Cloudy,190,2013-11-16 17:30:00
11:53 AM,79.0,66.0,64,29.83,10.0,South,19.6,25.3,N/A,,Mostly Cloudy,190,2013-11-16 17:53:00
12:05 PM,80.6,66.2,61,29.83,10.0,South,15.0,23.0,N/A,,Mostly Cloudy,190,2013-11-16 18:05:00
12:53 PM,79.0,64.9,62,29.79,10.0,South,16.1,27.6,N/A,,Overcast,190,2013-11-16 18:53:00
1:53 PM,80.1,66.0,62,29.75,10.0,South,19.6,27.6,N/A,,Overcast,190,2013-11-16 19:53:00
2:53 PM,82.0,66.9,60,29.73,10.0,South,12.7,19.6,N/A,,Overcast,180,2013-11-16 20:53:00
3:53 PM,81.0,66.9,62,29.73,10.0,South,15.0,23.0,N/A,,Overcast,190,2013-11-16 21:53:00
4:53 PM,80.1,66.9,64,29.74,10.0,SSW,8.1,-,N/A,,Overcast,200,2013-11-16 22:53:00
5:53 PM,78.1,68.0,71,29.74,10.0,SSE,9.2,-,N/A,,Mostly Cloudy,160,2013-11-16 23:53:00
6:12 PM,78.8,68.0,69,29.76,10.0,South,9.2,-,N/A,,Mostly Cloudy,170,2013-11-17 00:12:00
6:53 PM,75.9,69.1,79,29.75,10.0,SSE,12.7,-,N/A,,Mostly Cloudy,160,2013-11-17 00:53:00
7:53 PM,75.0,69.1,82,29.76,10.0,SSE,10.4,-,N/A,,Mostly Cloudy,160,2013-11-17 01:53:00
8:53 PM,73.9,70.0,87,29.78,10.0,South,8.1,-,N/A,,Overcast,180,2013-11-17 02:53:00
9:53 PM,73.9,70.0,87,29.79,10.0,South,10.4,-,N/A,,Overcast,170,2013-11-17 03:53:00
10:53 PM,73.0,70.0,90,29.78,10.0,South,9.2,-,N/A,,Mostly Cloudy,170,2013-11-17 04:53:00
11:53 PM,73.9,71.1,91,29.77,10.0,South,6.9,-,N/A,,Overcast,190,2013-11-17 05:53:00